Airfield :







YOU CAN JOIN US ON...

 
LOGIN :

Register | Disclaimer

   EN    FR    IT 

 









Legend :    VFR   Marginal VFR   IFR   Intensive IFR   Very Intensive IFR
Visi :
Ceiling :
>= 8 km
>= 3000ft
5 to 8 km
1000 to 3000 ft
1500m to 5 km
500 to 1000 ft
800 to 1500m
200 to 500 ft
< 800m
< 200 ft
Symbols :   Thunderstorms  Fog  Heavy snow  Heavy precipitations  Wind > 20 kt







- Airport Elevation : 76 ft
- IATA code : PWM


KPWM - Portland International Jetport

CURRENT METAR :
  • 210851Z 00000KT 10SM CLR 13/10 A3012 RMK AO2 SLP201 T01280100 53007

EXPIRED METARs :
  • 210751Z AUTO 00000KT 10SM CLR 14/11 A3012 RMK AO2 SLP200 T01390111 TSNO
  • 210651Z AUTO 00000KT 10SM CLR 15/12 A3011 RMK AO2 SLP195 T01500117

TAF KPWM
Valid from the 21 at 06:00 until the 22 at 06:00 UTC


210520Z 2106/2206 28004KT P6SM SKC
FM211700 17006KT P6SM FEW250
No reported NOTAMs for that airfield.



MET'MAP, your aeronautical weather chart ! - Copyright ORBIFLY December 2007 - Disclaimer

ORBIFLY MET'MAP TEAM :

Programming & Development : Alexandra Zaïnal
Concept & Development : Baudouin d'Aumeries
Co-Development & Prog : Marc-Olivier Méhu
Technical & hardware support : Manuel Goepfert

Contact : metmap@orbifly.com




SOURCES & CREDITS :

   NOAA